Time,TemperatureF,DewpointF,PressureIn,WindDirection,WindDirectionDegrees,WindSpeedMPH,WindSpeedGustMPH,Humidity,HourlyPrecipIn,Conditions,Clouds,dailyrainin,SolarRadiationWatts/m^2,SoftwareType,DateUTC
2013-05-07 00:03:00,47.0,47.0,-100.00,ESE,108,1.0,3.0,99,0.00,,,0.43,0.000000,,2013-05-07 04:03:00,
2013-05-07 00:33:00,47.0,47.0,-100.00,NE,46,1.0,5.0,99,0.00,,,0.15,0.000000,,2013-05-07 04:33:00,
2013-05-07 00:42:00,47.0,47.0,-100.00,NE,46,1.0,5.0,99,0.00,,,0.15,0.000000,,2013-05-07 04:42:00,
2013-05-07 00:53:00,47.0,47.0,-100.00,NE,46,1.0,5.0,99,0.00,,,0.15,0.000000,,2013-05-07 04:53:00,
2013-05-07 01:02:00,47.0,47.0,-100.00,NE,46,1.0,5.0,99,0.00,,,0.15,0.000000,,2013-05-07 05:02:00,
2013-05-07 01:32:00,48.0,47.0,-100.00,NNE,15,2.0,4.0,98,0.00,,,0.07,0.000000,,2013-05-07 05:32:00,
2013-05-07 01:42:00,48.0,47.0,-100.00,NNE,15,2.0,4.0,98,0.00,,,0.07,0.000000,,2013-05-07 05:42:00,
2013-05-07 01:52:00,48.0,47.0,-100.00,NNE,15,2.0,4.0,98,0.00,,,0.07,0.000000,,2013-05-07 05:52:00,
2013-05-07 02:02:00,48.0,47.0,-100.00,NNE,15,2.0,4.0,98,0.00,,,0.07,0.000000,,2013-05-07 06:02:00,
2013-05-07 02:32:00,48.0,47.0,-100.00,NE,54,1.0,5.0,97,0.00,,,0.07,0.000000,,2013-05-07 06:32:00,
2013-05-07 02:42:00,48.0,47.0,-100.00,NE,54,1.0,5.0,97,0.00,,,0.07,0.000000,,2013-05-07 06:42:00,
2013-05-07 02:52:00,48.0,47.0,-100.00,NE,54,1.0,5.0,97,0.00,,,0.07,0.000000,,2013-05-07 06:52:00,
2013-05-07 03:02:00,48.0,47.0,-100.00,NE,54,1.0,5.0,97,0.00,,,0.07,0.000000,,2013-05-07 07:02:00,
2013-05-07 03:32:00,47.0,46.0,-100.00,SE,132,2.0,4.0,98,0.00,,,0.07,0.000000,,2013-05-07 07:32:00,
2013-05-07 03:42:00,47.0,46.0,-100.00,SE,132,2.0,4.0,98,0.00,,,0.07,0.000000,,2013-05-07 07:42:00,
2013-05-07 03:53:00,47.0,46.0,-100.00,SE,132,2.0,4.0,98,0.00,,,0.07,0.000000,,2013-05-07 07:53:00,
2013-05-07 04:02:00,47.0,46.0,-100.00,SE,132,2.0,4.0,98,0.00,,,0.07,0.000000,,2013-05-07 08:02:00,
2013-05-07 04:32:00,47.0,47.0,-100.00,East,89,2.0,5.0,99,0.00,,,0.06,0.000000,,2013-05-07 08:32:00,
2013-05-07 04:42:00,47.0,47.0,-100.00,East,89,2.0,5.0,99,0.00,,,0.06,0.000000,,2013-05-07 08:42:00,
2013-05-07 04:52:00,47.0,47.0,-100.00,East,89,2.0,5.0,99,0.00,,,0.06,0.000000,,2013-05-07 08:52:00,
2013-05-07 05:01:00,47.0,47.0,-100.00,East,89,2.0,5.0,99,0.00,,,0.06,0.000000,,2013-05-07 09:01:00,
2013-05-07 05:33:00,44.0,44.0,-100.00,North,349,2.0,3.0,99,0.00,,,0.06,0.000000,,2013-05-07 09:33:00,
2013-05-07 05:43:00,44.0,44.0,-100.00,North,349,2.0,3.0,99,0.00,,,0.06,0.000000,,2013-05-07 09:43:00,
2013-05-07 05:52:00,44.0,44.0,-100.00,North,349,2.0,3.0,99,0.00,,,0.06,0.000000,,2013-05-07 09:52:00,
2013-05-07 06:03:00,44.0,44.0,-100.00,North,349,2.0,3.0,99,0.00,,,0.06,0.000000,,2013-05-07 10:03:00,
2013-05-07 06:33:00,46.0,46.0,-100.00,NNW,335,1.0,7.0,99,0.00,,,0.06,0.000000,,2013-05-07 10:33:00,
2013-05-07 06:42:00,46.0,46.0,-100.00,NNW,335,1.0,7.0,99,0.00,,,0.06,0.000000,,2013-05-07 10:42:00,
2013-05-07 06:52:00,46.0,46.0,-100.00,NNW,335,1.0,7.0,99,0.00,,,0.06,0.000000,,2013-05-07 10:52:00,
2013-05-07 07:02:00,46.0,46.0,-100.00,NNW,335,1.0,7.0,99,0.00,,,0.06,0.000000,,2013-05-07 11:02:00,
2013-05-07 07:32:00,45.0,45.0,-100.00,NNW,332,1.0,3.0,100,0.00,,,0.06,3.000000,,2013-05-07 11:32:00,
2013-05-07 07:42:00,45.0,45.0,-100.00,NNW,332,1.0,3.0,100,0.00,,,0.06,3.000000,,2013-05-07 11:42:00,
2013-05-07 07:52:00,45.0,45.0,-100.00,NNW,332,1.0,3.0,100,0.00,,,0.06,3.000000,,2013-05-07 11:52:00,
2013-05-07 08:02:00,45.0,45.0,-100.00,NNW,332,1.0,3.0,100,0.00,,,0.06,3.000000,,2013-05-07 12:02:00,
2013-05-07 08:32:00,48.0,48.0,-100.00,NE,54,1.0,5.0,99,0.00,,,0.05,56.000000,,2013-05-07 12:32:00,
2013-05-07 08:42:00,48.0,48.0,-100.00,NE,54,1.0,5.0,99,0.00,,,0.05,56.000000,,2013-05-07 12:42:00,
2013-05-07 08:52:00,48.0,48.0,-100.00,NE,54,1.0,5.0,99,0.00,,,0.05,56.000000,,2013-05-07 12:52:00,
2013-05-07 09:02:00,48.0,48.0,-100.00,NE,54,1.0,5.0,99,0.00,,,0.05,56.000000,,2013-05-07 13:02:00,
2013-05-07 09:32:00,54.0,47.0,-100.00,NNE,17,5.0,9.0,77,0.00,,,-99.99,342.000000,,2013-05-07 13:32:00,
2013-05-07 09:42:00,54.0,47.0,-100.00,NNE,17,5.0,9.0,77,0.00,,,-99.99,342.000000,,2013-05-07 13:42:00,
2013-05-07 09:52:00,54.0,47.0,-100.00,NNE,17,5.0,9.0,77,0.00,,,-99.99,342.000000,,2013-05-07 13:52:00,
2013-05-07 10:02:00,54.0,47.0,-100.00,NNE,17,5.0,9.0,77,0.00,,,-99.99,342.000000,,2013-05-07 14:02:00,
2013-05-07 10:32:00,55.0,48.0,-100.00,NNE,20,6.0,11.0,77,0.00,,,0.05,633.000000,,2013-05-07 14:32:00,
2013-05-07 10:42:00,55.0,48.0,-100.00,NNE,20,6.0,11.0,77,0.00,,,0.05,633.000000,,2013-05-07 14:42:00,
2013-05-07 10:52:00,55.0,48.0,-100.00,NNE,20,6.0,11.0,77,0.00,,,0.05,633.000000,,2013-05-07 14:52:00,
2013-05-07 11:01:00,55.0,48.0,-100.00,NNE,20,6.0,11.0,77,0.00,,,0.05,633.000000,,2013-05-07 15:01:00,
2013-05-07 11:33:00,59.0,47.0,-100.00,NNE,13,7.0,10.0,65,0.00,,,0.05,848.000000,,2013-05-07 15:33:00,
2013-05-07 11:43:00,59.0,47.0,-100.00,NNE,13,7.0,10.0,65,0.00,,,0.05,848.000000,,2013-05-07 15:43:00,
2013-05-07 11:53:00,59.0,47.0,-100.00,NNE,13,7.0,10.0,65,0.00,,,0.05,848.000000,,2013-05-07 15:53:00,
2013-05-07 12:03:00,59.0,47.0,-100.00,NNE,13,7.0,10.0,65,0.00,,,0.05,848.000000,,2013-05-07 16:03:00,
2013-05-07 14:32:00,65.0,50.0,-100.00,NNW,337,5.0,11.0,59,-99.99,,,-99.99,1120.000000,,2013-05-07 18:32:00,
2013-05-07 14:42:00,65.0,50.0,-100.00,NNW,337,5.0,11.0,59,-99.99,,,-99.99,1120.000000,,2013-05-07 18:42:00,
2013-05-07 14:52:00,65.0,50.0,-100.00,NNW,337,5.0,11.0,59,-99.99,,,-99.99,1120.000000,,2013-05-07 18:52:00,
2013-05-07 15:02:00,65.0,50.0,-100.00,NNW,337,5.0,11.0,59,-99.99,,,-99.99,1120.000000,,2013-05-07 19:02:00,
2013-05-07 15:32:00,66.0,48.0,-100.00,NNW,329,3.0,11.0,52,0.00,,,0.02,1081.000000,,2013-05-07 19:32:00,
2013-05-07 15:42:00,66.0,48.0,-100.00,NNW,329,3.0,11.0,52,0.00,,,0.02,1081.000000,,2013-05-07 19:42:00,
2013-05-07 15:52:00,66.0,48.0,-100.00,NNW,329,3.0,11.0,52,0.00,,,0.02,1081.000000,,2013-05-07 19:52:00,
2013-05-07 16:02:00,66.0,48.0,-100.00,NNW,329,3.0,11.0,52,0.00,,,0.02,1081.000000,,2013-05-07 20:02:00,
2013-05-07 16:32:00,66.0,47.0,-100.00,NW,321,5.0,12.0,51,0.00,,,0.02,929.000000,,2013-05-07 20:32:00,
2013-05-07 16:42:00,66.0,47.0,-100.00,NW,321,5.0,12.0,51,0.00,,,0.02,929.000000,,2013-05-07 20:42:00,
2013-05-07 16:52:00,66.0,47.0,-100.00,NW,321,5.0,12.0,51,0.00,,,0.02,929.000000,,2013-05-07 20:52:00,
2013-05-07 17:02:00,66.0,47.0,-100.00,NW,321,5.0,12.0,51,0.00,,,0.02,929.000000,,2013-05-07 21:02:00,
2013-05-07 17:33:00,68.0,49.0,-100.00,WNW,289,5.0,12.0,50,0.00,,,0.01,786.000000,,2013-05-07 21:33:00,
2013-05-07 17:43:00,68.0,49.0,-100.00,WNW,289,5.0,12.0,50,0.00,,,0.01,786.000000,,2013-05-07 21:43:00,
2013-05-07 17:53:00,68.0,49.0,-100.00,WNW,289,5.0,12.0,50,0.00,,,0.01,786.000000,,2013-05-07 21:53:00,
2013-05-07 18:02:00,68.0,49.0,-100.00,WNW,289,5.0,12.0,50,0.00,,,0.01,786.000000,,2013-05-07 22:02:00,
2013-05-07 18:33:00,63.0,45.0,-100.00,NNE,27,5.0,13.0,51,0.00,,,0.01,482.000000,,2013-05-07 22:33:00,
2013-05-07 18:42:00,63.0,45.0,-100.00,NNE,27,5.0,13.0,51,0.00,,,0.01,482.000000,,2013-05-07 22:42:00,
2013-05-07 18:52:00,63.0,45.0,-100.00,NNE,27,5.0,13.0,51,0.00,,,0.01,482.000000,,2013-05-07 22:52:00,
2013-05-07 19:02:00,63.0,45.0,-100.00,NNE,27,5.0,13.0,51,0.00,,,0.01,482.000000,,2013-05-07 23:02:00,
2013-05-07 19:32:00,61.0,56.0,-100.00,NNW,342,2.0,5.0,84,0.01,,,0.02,136.000000,,2013-05-07 23:32:00,
2013-05-07 19:42:00,61.0,56.0,-100.00,NNW,342,2.0,5.0,84,0.01,,,0.02,136.000000,,2013-05-07 23:42:00,
2013-05-07 19:52:00,61.0,56.0,-100.00,NNW,342,2.0,5.0,84,0.01,,,0.02,136.000000,,2013-05-07 23:52:00,
2013-05-07 20:02:00,61.0,56.0,-100.00,NNW,342,2.0,5.0,84,0.01,,,0.02,136.000000,,2013-05-08 00:02:00,
2013-05-07 20:32:00,57.0,53.0,-100.00,NW,309,2.0,6.0,86,0.02,,,-99.99,30.000000,,2013-05-08 00:32:00,
2013-05-07 20:42:00,57.0,53.0,-100.00,NW,309,2.0,6.0,86,0.02,,,-99.99,30.000000,,2013-05-08 00:42:00,
2013-05-07 20:52:00,57.0,53.0,-100.00,NW,309,2.0,6.0,86,0.02,,,-99.99,30.000000,,2013-05-08 00:52:00,
2013-05-07 21:02:00,57.0,53.0,-100.00,NW,309,2.0,6.0,86,0.02,,,-99.99,30.000000,,2013-05-08 01:02:00,
2013-05-07 21:32:00,55.0,53.0,-100.00,WNW,287,2.0,9.0,92,0.17,,,0.20,2.000000,,2013-05-08 01:32:00,
2013-05-07 21:42:00,55.0,53.0,-100.00,WNW,287,2.0,9.0,92,0.17,,,0.20,2.000000,,2013-05-08 01:42:00,
2013-05-07 21:52:00,55.0,53.0,-100.00,WNW,287,2.0,9.0,92,0.17,,,0.20,2.000000,,2013-05-08 01:52:00,
2013-05-07 22:02:00,55.0,53.0,-100.00,WNW,287,2.0,9.0,92,0.17,,,0.20,2.000000,,2013-05-08 02:02:00,
2013-05-07 22:32:00,55.0,49.0,-100.00,WNW,287,3.0,11.0,80,0.01,,,0.21,0.000000,,2013-05-08 02:32:00,
2013-05-07 22:42:00,55.0,49.0,-100.00,WNW,287,3.0,11.0,80,0.01,,,0.21,0.000000,,2013-05-08 02:42:00,
2013-05-07 22:52:00,55.0,49.0,-100.00,WNW,287,3.0,11.0,80,0.01,,,0.21,0.000000,,2013-05-08 02:52:00,
2013-05-07 23:02:00,55.0,49.0,-100.00,WNW,287,3.0,11.0,80,0.01,,,0.21,0.000000,,2013-05-08 03:02:00,
2013-05-07 23:33:00,51.0,50.0,-100.00,NW,311,2.0,4.0,98,0.00,,,0.21,0.000000,,2013-05-08 03:33:00,
2013-05-07 23:43:00,51.0,50.0,-100.00,NW,311,2.0,4.0,98,0.00,,,0.21,0.000000,,2013-05-08 03:43:00,
2013-05-07 23:52:00,51.0,50.0,-100.00,NW,311,2.0,4.0,98,0.00,,,0.21,0.000000,,2013-05-08 03:52:00,